• In Uzbekistan
  • List of Countries
  • For 7 days
  • Water Temperature
  • Satellite Maps
  • Weather Map
  • Weather Widgets
  • user-avatar
    Login

    Hourly Weather Zirndorf

    Today, 19 November, Sunday

    Time Temperature Precipitation Wind Pressure Humidity
    00:00 +1°C° 0.1 mm 6 mps 735 mmHg 83%
    01:00 +1°C° 0 mm 5 mps 734 mmHg 84%
    02:00 +1°C° 0.5 mm 5 mps 734 mmHg 85%
    03:00 +1°C° 0.5 mm 5 mps 733 mmHg 86%
    04:00 +1°C° 0.5 mm 6 mps 733 mmHg 87%
    05:00 +1°C° 0.4 mm 5 mps 733 mmHg 88%
    06:00 +1°C° 0.4 mm 5 mps 733 mmHg 89%
    07:00 +1°C° 0 mm 4 mps 732 mmHg 90%
    08:00 +1°C° 0.1 mm 4 mps 733 mmHg 88%
    09:00 +1°C° 0.1 mm 5 mps 733 mmHg 87%
    10:00 +1°C° 0.1 mm 5 mps 734 mmHg 85%
    11:00 +2°C° 0 mm 5 mps 734 mmHg 82%
    12:00 +2°C° 0 mm 5 mps 734 mmHg 78%
    13:00 +2°C° 0 mm 5 mps 734 mmHg 76%
    14:00 +2°C° 0 mm 5 mps 734 mmHg 77%
    15:00 +2°C° 0 mm 5 mps 735 mmHg 79%
    16:00 +2°C° 0 mm 6 mps 735 mmHg 80%
    17:00 +2°C° 0.1 mm 6 mps 735 mmHg 81%
    18:00 +2°C° 0.1 mm 6 mps 735 mmHg 83%
    19:00 +2°C° 0.1 mm 6 mps 736 mmHg 84%
    20:00 +2°C° 0.2 mm 6 mps 736 mmHg 85%
    21:00 +2°C° 0.2 mm 6 mps 736 mmHg 86%
    22:00 +2°C° 0.2 mm 6 mps 737 mmHg 87%
    23:00 +2°C° 0.2 mm 6 mps 737 mmHg 87%

    Tomorrow, 20 November, Monday

    Time Temperature Precipitation Wind Pressure Humidity
    00:00 +1°C° 0.2 mm 6 mps 737 mmHg 88%
    01:00 +1°C° 0.2 mm 6 mps 737 mmHg 89%
    02:00 +1°C° 0.1 mm 6 mps 738 mmHg 89%
    03:00 +1°C° 0.1 mm 5 mps 738 mmHg 89%
    04:00 +1°C° 0.1 mm 5 mps 738 mmHg 90%
    05:00 0°C° 0.1 mm 5 mps 738 mmHg 90%
    06:00 0°C° 0.1 mm 5 mps 738 mmHg 91%
    07:00 0°C° 0.1 mm 4 mps 738 mmHg 91%
    08:00 0°C° 0 mm 4 mps 738 mmHg 90%
    09:00 0°C° 0 mm 4 mps 738 mmHg 88%
    10:00 0°C° 0 mm 4 mps 738 mmHg 86%
    11:00 +1°C° 0.1 mm 4 mps 738 mmHg 84%
    12:00 +1°C° 0.1 mm 4 mps 738 mmHg 82%
    13:00 +1°C° 0.1 mm 4 mps 737 mmHg 79%
    14:00 +1°C° 0.2 mm 4 mps 737 mmHg 80%
    15:00 +1°C° 0.2 mm 4 mps 736 mmHg 81%
    16:00 +2°C° 0.2 mm 3 mps 736 mmHg 82%
    17:00 +1°C° 0.3 mm 4 mps 735 mmHg 82%
    18:00 +1°C° 0.3 mm 4 mps 735 mmHg 82%
    19:00 +1°C° 0.3 mm 5 mps 734 mmHg 82%
    20:00 +2°C° 0.3 mm 5 mps 734 mmHg 84%
    21:00 +2°C° 0.3 mm 6 mps 733 mmHg 86%
    22:00 +3°C° 0.3 mm 7 mps 733 mmHg 88%
    23:00 +3°C° 0.1 mm 7 mps 733 mmHg 89%

    Day after tomorrow, 21 November, Tuesday

    Time Temperature Precipitation Wind Pressure Humidity
    00:00 +3°C° 0.1 mm 7 mps 733 mmHg 89%
    01:00 +3°C° 0.1 mm 6 mps 733 mmHg 90%
    02:00 +4°C° 0.5 mm 6 mps 733 mmHg 91%
    03:00 +4°C° 0.5 mm 6 mps 733 mmHg 91%
    04:00 +4°C° 0.5 mm 6 mps 732 mmHg 92%
    05:00 +4°C° 0.2 mm 6 mps 733 mmHg 92%
    06:00 +4°C° 0.2 mm 6 mps 733 mmHg 92%
    07:00 +4°C° 0.2 mm 6 mps 733 mmHg 92%
    08:00 +5°C° 0.1 mm 6 mps 733 mmHg 92%
    09:00 +5°C° 0.1 mm 6 mps 733 mmHg 91%
    10:00 +5°C° 0.1 mm 6 mps 734 mmHg 91%
    11:00 +5°C° 0.1 mm 6 mps 734 mmHg 90%
    12:00 +7°C° 0.1 mm 6 mps 734 mmHg 90%
    13:00 +7°C° 0.1 mm 6 mps 734 mmHg 90%
    14:00 +7°C° 0.5 mm 5 mps 734 mmHg 91%
    15:00 +7°C° 0.5 mm 5 mps 734 mmHg 92%
    16:00 +7°C° 0.5 mm 4 mps 734 mmHg 92%
    17:00 +6°C° 0.6 mm 4 mps 734 mmHg 92%
    18:00 +6°C° 0.6 mm 4 mps 734 mmHg 92%
    19:00 +6°C° 0.6 mm 4 mps 734 mmHg 92%
    20:00 +7°C° 0 mm 3 mps 734 mmHg 92%
    21:00 +5°C° 0 mm 3 mps 734 mmHg 93%
    22:00 +6°C° 0 mm 2 mps 734 mmHg 94%
    23:00 +5°C° 0 mm 2 mps 734 mmHg 93%

    22 November, Wednesday

    Time Temperature Precipitation Wind Pressure Humidity
    00:00 +5°C° 0 mm 2 mps 734 mmHg 93%
    01:00 +5°C° 0 mm 2 mps 734 mmHg 92%
    02:00 +4°C° 0 mm 2 mps 734 mmHg 91%
    03:00 +4°C° 0 mm 2 mps 734 mmHg 91%
    04:00 +4°C° 0 mm 2 mps 734 mmHg 90%
    05:00 +4°C° 0 mm 2 mps 734 mmHg 89%
    06:00 +4°C° 0 mm 2 mps 734 mmHg 89%
    07:00 +4°C° 0 mm 2 mps 734 mmHg 89%
    08:00 +5°C° 0 mm 2 mps 734 mmHg 85%
    09:00 +5°C° 0 mm 3 mps 734 mmHg 82%
    10:00 +7°C° 0 mm 3 mps 734 mmHg 79%
    11:00 +8°C° 0 mm 3 mps 734 mmHg 77%
    12:00 +9°C° 0 mm 3 mps 734 mmHg 74%
    13:00 +10°C° 0 mm 2 mps 734 mmHg 72%
    14:00 +10°C° 0 mm 2 mps 734 mmHg 76%
    15:00 +9°C° 0 mm 2 mps 734 mmHg 80%
    16:00 +8°C° 0 mm 2 mps 733 mmHg 85%
    17:00 +7°C° 0 mm 2 mps 734 mmHg 85%
    18:00 +7°C° 0 mm 2 mps 734 mmHg 86%
    19:00 +6°C° 0 mm 2 mps 734 mmHg 86%
    20:00 +6°C° 0 mm 2 mps 734 mmHg 85%
    21:00 +5°C° 0 mm 2 mps 734 mmHg 84%
    22:00 +5°C° 0 mm 2 mps 734 mmHg 83%
    23:00 +5°C° 0 mm 2 mps 734 mmHg 82%

    23 November, Thursday

    Time Temperature Precipitation Wind Pressure Humidity
    00:00 +5°C° 0 mm 2 mps 734 mmHg 81%
    01:00 +5°C° 0 mm 2 mps 734 mmHg 80%
    02:00 +5°C° 0 mm 2 mps 735 mmHg 79%
    03:00 +5°C° 0 mm 2 mps 735 mmHg 79%
    04:00 +4°C° 0 mm 2 mps 735 mmHg 79%
    05:00 +4°C° 0 mm 2 mps 735 mmHg 79%
    06:00 +4°C° 0 mm 2 mps 736 mmHg 80%
    07:00 +4°C° 0 mm 2 mps 736 mmHg 80%
    08:00 +5°C° 0 mm 2 mps 737 mmHg 78%
    09:00 +6°C° 0 mm 2 mps 737 mmHg 76%
    10:00 +7°C° 0 mm 2 mps 737 mmHg 73%
    11:00 +9°C° 0 mm 2 mps 737 mmHg 71%
    12:00 +10°C° 0 mm 2 mps 737 mmHg 70%
    13:00 +12°C° 0 mm 2 mps 737 mmHg 68%
    14:00 +10°C° 0 mm 2 mps 737 mmHg 72%
    15:00 +10°C° 0 mm 2 mps 737 mmHg 76%
    16:00 +9°C° 0 mm 2 mps 737 mmHg 80%
    17:00 +8°C° 0 mm 2 mps 738 mmHg 81%
    18:00 +7°C° 0 mm 2 mps 738 mmHg 82%
    19:00 +6°C° 0 mm 2 mps 738 mmHg 83%
    20:00 +6°C° 0 mm 2 mps 738 mmHg 83%
    21:00 +6°C° 0 mm 2 mps 738 mmHg 83%
    22:00 +6°C° 0 mm 2 mps 739 mmHg 83%
    23:00 +5°C° 0 mm 2 mps 739 mmHg 83%

    24 November, Friday

    Time Temperature Precipitation Wind Pressure Humidity
    00:00 +5°C° 0 mm 2 mps 739 mmHg 83%
    01:00 +5°C° 0 mm 2 mps 738 mmHg 83%
    02:00 +5°C° 0 mm 2 mps 738 mmHg 83%
    03:00 +5°C° 0 mm 1 mps 738 mmHg 83%
    04:00 +5°C° 0 mm 1 mps 738 mmHg 83%
    05:00 +5°C° 0 mm 1 mps 738 mmHg 83%
    06:00 +5°C° 0 mm 1 mps 738 mmHg 83%
    07:00 +5°C° 0 mm 1 mps 738 mmHg 83%
    08:00 +5°C° 0 mm 2 mps 738 mmHg 81%
    09:00 +6°C° 0 mm 2 mps 738 mmHg 78%
    10:00 +7°C° 0 mm 2 mps 738 mmHg 75%
    11:00 +8°C° 0 mm 2 mps 738 mmHg 73%
    12:00 +9°C° 0 mm 2 mps 738 mmHg 70%
    13:00 +10°C° 0 mm 2 mps 737 mmHg 68%
    14:00 +9°C° 0 mm 2 mps 737 mmHg 72%
    15:00 +8°C° 0 mm 2 mps 737 mmHg 76%
    16:00 +7°C° 0 mm 2 mps 737 mmHg 80%
    17:00 +7°C° 0 mm 2 mps 737 mmHg 80%
    18:00 +6°C° 0 mm 2 mps 737 mmHg 81%
    19:00 +5°C° 0 mm 2 mps 737 mmHg 81%
    20:00 +5°C° 0 mm 2 mps 737 mmHg 81%
    21:00 +5°C° 0 mm 2 mps 737 mmHg 81%
    22:00 +4°C° 0 mm 2 mps 737 mmHg 80%
    23:00 +4°C° 0 mm 2 mps 737 mmHg 80%
    Show more